DateTimeUTC,F1_A11,F1_S11,BsB_S11,BsG_S11,BsR_S11,BbsB_S11,BbsG_S11,BbsR_S11,BaB_A11,BaG_A11,BaR_A11,Tu_S11,T_S11,Uu_S11,U_S11,P_S11,T1_A11
2021-11-14T09:00:00Z,00000200,21000000,,,,,,,-000.11,-000.56,0000.03,20.2,26.8,,00.0,0624.0,31.1
2021-11-14T09:01:00Z,00000200,21000000,,,,,,,-000.24,0000.24,-000.20,20.2,26.9,,00.0,0624.0,31.1
2021-11-14T09:02:00Z,00000200,21000000,,,,,,,0000.28,0000.13,0000.09,20.2,26.9,,00.0,0624.0,31.1
2021-11-14T09:03:00Z,00000200,61000000,,,,,,,0000.04,-000.08,0000.05,20.2,26.9,,00.0,0624.0,31.1
2021-11-14T09:04:00Z,00000200,41000000,-000.07,-000.00,-000.11,-000.06,-000.10,-000.06,0000.25,-000.02,0000.50,20.4,26.7,,00.0,0624.8,31.1
2021-11-14T09:05:00Z,00000200,01000000,0000.09,0000.14,0000.20,0000.22,0000.49,0000.22,0000.20,0000.69,-000.05,20.5,26.7,,00.0,0625.0,31.1
2021-11-14T09:06:00Z,00000200,01000000,0000.65,-000.32,-000.01,-000.62,0000.10,-000.10,0000.11,-000.05,0000.13,20.5,26.7,,00.0,0624.9,31.1
2021-11-14T09:07:00Z,00000200,01000000,0000.21,-000.41,-000.01,-000.04,0000.16,0000.10,-000.02,0000.14,0000.03,20.5,26.7,,00.0,0625.0,31.1
2021-11-14T09:08:00Z,00000200,01000000,0000.24,-000.12,0000.19,-000.25,-000.06,-000.16,0000.27,0000.02,-000.01,20.5,26.7,,00.0,0624.9,31.1
2021-11-14T09:09:00Z,00000200,01000000,0000.67,0000.25,0000.32,-000.76,0000.12,0000.15,0000.14,0000.01,0000.34,20.5,26.7,,00.0,0625.0,31.1
2021-11-14T09:10:00Z,00000200,01000000,-000.09,-000.00,0000.37,-000.25,0000.17,0000.21,0000.29,0000.00,0000.03,20.5,26.7,,00.0,0625.0,31.1
2021-11-14T09:11:00Z,00000200,01000000,0000.11,-000.05,0000.19,-000.27,0000.02,0000.12,-000.07,0000.59,0000.04,20.5,26.7,,00.0,0625.0,31.1
2021-11-14T09:12:00Z,00000200,01000000,-000.57,0000.17,0000.32,0000.12,0000.15,-000.01,0000.17,-000.42,0000.27,20.5,26.7,,00.0,0625.1,31.1
2021-11-14T09:13:00Z,00000200,01000000,-000.20,0000.25,-000.12,-000.29,0000.38,-000.09,0000.28,-000.01,0000.30,20.5,26.7,,00.0,0625.0,31.1
2021-11-14T09:14:00Z,00000200,01000000,-000.42,0000.09,-000.15,0000.06,-000.01,-000.08,-000.21,0000.59,0000.10,20.5,26.7,,00.0,0624.7,31.1
2021-11-14T09:15:00Z,00000200,01000000,-000.08,0000.32,-000.09,0000.25,0000.21,-000.45,0000.28,-000.27,-000.06,20.5,26.7,,00.0,0625.0,31.1
2021-11-14T09:16:00Z,00000200,01000000,-000.53,0000.00,0000.01,0000.12,0000.17,0000.01,-000.27,0000.09,0000.13,20.5,26.7,,00.0,0625.1,31.1
2021-11-14T09:17:00Z,00000200,01000000,-000.23,-000.06,0000.36,0000.41,-000.23,0000.12,0000.26,0000.51,0000.05,20.5,26.7,,00.0,0625.0,31.1
2021-11-14T09:18:00Z,00000200,01000000,0000.57,0000.13,-000.01,0000.55,0000.22,0000.26,0000.71,0000.45,0000.09,20.5,26.7,,00.0,0624.9,31.1
2021-11-14T09:19:00Z,00000200,01000000,-000.44,-000.13,0000.04,-000.15,0000.14,0000.13,-000.15,-000.01,0000.18,20.5,26.7,,00.0,0624.9,31.1
2021-11-14T09:20:00Z,00000200,01000000,-000.10,0000.04,-000.04,-000.69,0000.11,-000.05,0000.16,-000.01,0000.12,20.5,26.7,,00.0,0625.1,31.1
2021-11-14T09:21:00Z,00000200,01000000,-000.15,0000.08,0000.15,-000.00,-000.13,-000.18,0000.31,0000.37,0000.44,20.6,26.7,,00.0,0625.0,31.1
2021-11-14T09:22:00Z,00000200,01000000,0000.41,0000.29,0000.10,0000.11,-000.11,0000.04,-000.28,-000.14,-000.21,20.6,26.7,,00.0,0624.9,31.1
2021-11-14T09:23:00Z,00000200,01000000,0000.15,0000.14,0000.33,0000.12,0000.09,0000.32,0000.43,0000.21,0000.23,20.6,26.7,,00.0,0625.1,31.1
2021-11-14T09:24:00Z,00000200,01000000,0000.44,0000.20,0000.52,-000.49,0000.30,0000.14,-000.12,-000.20,-000.12,20.6,26.7,,00.0,0625.0,31.1
2021-11-14T09:25:00Z,00000200,01000000,0000.11,0000.06,-000.00,0000.26,-000.02,-000.01,0000.07,0000.34,0000.61,20.6,26.7,,00.0,0625.1,31.1
2021-11-14T09:26:00Z,00000200,01000000,-000.07,-000.04,-000.00,-000.39,-000.20,0000.36,0000.44,0000.16,0000.12,20.6,26.7,,00.0,0625.0,31.1
2021-11-14T09:27:00Z,00000200,01000000,-000.39,0000.20,0000.11,-000.50,0000.19,0000.11,0000.08,-000.08,-000.16,20.6,26.7,,00.0,0624.7,31.1
2021-11-14T09:28:00Z,00000200,01000000,0000.44,0000.31,0000.31,-001.10,0000.18,0000.08,0000.09,0000.22,0000.11,20.6,26.7,,00.0,0625.0,31.1
2021-11-14T09:29:00Z,00000200,01000000,0000.18,-000.14,0000.26,-000.81,0000.08,0000.46,0000.21,0000.57,0000.28,20.6,26.7,,00.0,0625.0,31.1
2021-11-14T09:30:00Z,00000200,01000000,0000.72,-000.01,-000.04,-000.35,0000.26,-000.01,0000.19,0000.03,-000.06,20.6,26.7,,00.0,0625.2,31.1
2021-11-14T09:31:00Z,00000200,01000000,-000.32,-000.11,0000.06,-000.57,-000.22,-000.12,-000.01,-000.13,0000.07,20.6,26.7,,00.0,0625.1,31.1
2021-11-14T09:32:00Z,00000200,01000000,-000.20,0000.03,0000.50,0000.17,0000.14,0000.02,0000.14,0000.55,0000.08,20.6,26.7,,00.0,0625.0,31.1
2021-11-14T09:33:00Z,00000200,01000000,-000.37,0000.05,0000.23,-000.14,0000.44,-000.17,-000.04,-000.45,0000.48,20.6,26.7,,00.0,0625.4,31.1
2021-11-14T09:34:00Z,00000200,01000000,-000.54,0000.03,0000.20,-000.08,0000.10,0000.02,0000.03,0000.16,-000.10,20.6,26.7,,00.0,0625.3,31.1
2021-11-14T09:35:00Z,00000200,01000000,0000.22,0000.05,0000.21,-000.09,0000.07,-000.48,0000.07,-000.16,-000.17,20.6,26.7,,00.0,0625.1,31.1
2021-11-14T09:36:00Z,00000200,01000000,0000.04,-000.10,0000.15,0000.29,0000.33,0000.12,-000.17,0000.30,-000.29,20.6,26.7,,00.0,0625.1,31.1
2021-11-14T09:37:00Z,00000200,01000000,0000.28,-000.01,0000.04,-000.08,0000.31,-000.12,0000.42,0000.14,0000.86,20.6,26.7,,00.0,0625.0,31.1
2021-11-14T09:38:00Z,00000200,01000000,-000.11,0000.11,0000.09,-000.05,0000.15,0000.23,0000.29,0000.05,-000.07,20.6,26.7,,00.0,0625.2,31.1
2021-11-14T09:39:00Z,00000200,01000000,0000.31,0000.00,0000.23,0000.12,-000.26,-000.02,0000.15,0000.12,0000.30,20.6,26.7,,00.0,0625.4,31.1
2021-11-14T09:40:00Z,00000200,01000000,-000.02,-000.17,0000.24,0000.31,-000.25,0000.21,-000.11,0000.38,0000.11,20.6,26.7,,00.0,0625.3,31.1
2021-11-14T09:41:00Z,00000200,01000000,0000.39,0000.38,0000.38,0000.10,0000.25,0000.53,0000.20,0000.01,-000.02,20.6,26.7,,00.0,0625.3,31.1
2021-11-14T09:42:00Z,00000200,01000000,-000.42,0000.16,0000.45,0000.40,0000.01,0000.24,0000.15,0000.14,0000.41,20.6,26.8,,00.0,0625.4,31.1
2021-11-14T09:43:00Z,00000200,01000000,0000.17,0000.19,0000.15,-000.15,0000.27,0000.14,0000.37,0000.30,-000.33,20.7,26.7,,00.0,0625.4,31.1
2021-11-14T09:44:00Z,00000200,01000000,0000.02,0000.22,-000.08,-000.13,0000.11,-000.08,0000.17,-000.37,0000.06,20.6,26.8,,00.0,0625.4,31.1
2021-11-14T09:45:00Z,00000200,01000000,0000.39,-000.01,-000.21,0000.37,0000.44,0000.20,-000.13,0000.15,0000.23,20.6,26.8,,00.0,0625.4,31.1
2021-11-14T09:46:00Z,00000200,01000000,-000.07,-000.11,-000.27,0000.10,0000.50,0000.08,0000.11,0000.17,0000.01,20.7,26.7,,00.0,0625.6,31.1
2021-11-14T09:47:00Z,00000200,01000000,-000.42,0000.17,-000.12,-000.45,-000.00,0000.07,0000.07,0000.23,0000.48,20.7,26.7,,00.0,0625.4,31.1
2021-11-14T09:48:00Z,00000200,01000000,-000.31,-000.16,0000.12,-000.51,-000.17,0000.25,0000.30,0000.45,-000.17,20.7,26.8,,00.0,0625.5,31.1
2021-11-14T09:49:00Z,00000200,01000000,-000.20,0000.22,0000.04,-000.72,-000.21,-000.19,0000.09,0000.00,0000.43,20.7,26.8,,00.0,0625.4,31.1
2021-11-14T09:50:00Z,00000200,01000000,0000.66,-000.13,-000.29,-000.13,0000.10,0000.02,0000.67,-000.13,0000.13,20.7,26.8,,00.0,0625.4,31.1
2021-11-14T09:51:00Z,00000200,01000000,-000.11,-000.23,0000.12,-000.02,0000.12,0000.34,-000.34,0000.59,-000.12,20.7,26.8,,00.0,0625.3,31.1
2021-11-14T09:52:00Z,00000200,01000000,-000.12,-000.14,-000.05,0000.25,0000.24,-000.35,0000.04,-000.10,0000.44,20.7,26.8,,00.0,0625.6,31.1
2021-11-14T09:53:00Z,00000200,01000000,0000.21,0000.05,-000.01,-000.38,0000.10,-000.00,-000.03,0000.12,0000.11,20.7,26.8,,00.0,0625.4,31.1
2021-11-14T09:54:00Z,00000200,01000000,0000.88,-000.21,0000.37,0000.14,-000.02,-000.08,0000.05,0000.14,-000.09,20.7,26.8,,00.0,0625.2,31.1
2021-11-14T09:55:00Z,00000200,01000000,0000.05,0000.15,0000.07,-000.31,-000.03,-000.22,0000.53,0000.42,-000.00,20.7,26.8,,00.0,0625.4,31.1
2021-11-14T09:56:00Z,00000200,01000000,-000.01,-000.27,0000.27,0000.07,-000.08,0000.46,0000.17,-000.16,0000.12,20.7,26.8,,00.0,0625.3,31.1
2021-11-14T09:57:00Z,00000200,41000000,,,,,,,0000.13,0000.37,0000.56,20.8,26.8,,00.0,0624.9,31.1
2021-11-14T09:58:00Z,00000200,61000000,,,,,,,0000.22,-000.30,0000.02,20.4,26.8,,00.0,0624.5,31.1
2021-11-14T09:59:00Z,00000200,21000000,,,,,,,-000.32,-000.05,-000.39,20.4,26.9,,00.0,0624.5,31.1
